This is the latest recevied weather packets stored in our database for station/object W4KAB. If no packets are shown the sender has not sent any weather packets the latest 10 day(s).
| Time | Temp. | Humidity | Pressure | Rain* | Wind** | Luminosity | Snow |
|---|---|---|---|---|---|---|---|
| 1778009204 | 26.11° C | 40% | 1015.5 hPa | 0 mm | - | 566 W/m² | - |
| 1778008901 | 25.56° C | 39% | 1015.9 hPa | 0 mm | - | 609 W/m² | - |
| 1778008599 | 25.56° C | 39% | 1015.8 hPa | 0 mm | - | 567 W/m² | - |
| 1778008297 | 26.11° C | 38% | 1015.8 hPa | 0 mm | - | 457 W/m² | - |
| 1778007993 | 26.11° C | 38% | 1015.9 hPa | 0 mm | - | 618 W/m² | - |
| 1778007385 | 25° C | 39% | 1016 hPa | 0 mm | - | 676 W/m² | - |
| 1778006171 | 26.11° C | 40% | 1016.4 hPa | 0 mm | - | 463 W/m² | - |
| 1778005869 | 25.56° C | 39% | 1016.4 hPa | 0 mm | - | 739 W/m² | - |
| 1778005262 | 25.56° C | 39% | 1016.7 hPa | 0 mm | - | 636 W/m² | - |
| 1778004656 | 25.56° C | 37% | 1016.9 hPa | 0 mm | - | 635 W/m² | - |
| 1778004351 | 25.56° C | 36% | 1016.9 hPa | 0 mm | - | 646 W/m² | - |
| 1778002537 | 26.11° C | 38% | 1016.7 hPa | 0 mm | - | 474 W/m² | - |
| 1778002233 | 25.56° C | 37% | 1016.8 hPa | 0 mm | - | 754 W/m² | - |
| 1778001931 | 25.56° C | 43% | 1016.9 hPa | 0 mm | - | 750 W/m² | - |
| 1778001627 | 25.56° C | 40% | 1016.8 hPa | 0 mm | - | 772 W/m² | - |
| 1778001322 | 25.56° C | 42% | 1017 hPa | 0 mm | - | 714 W/m² | - |
| 1778001020 | 25° C | 41% | 1016.7 hPa | 0 mm | - | 698 W/m² | - |
| 1777999198 | 23.89° C | 45% | 1017.7 hPa | 0 mm | - | 556 W/m² | - |
| 1777998897 | 23.89° C | 43% | 1017.5 hPa | 0 mm | - | 545 W/m² | - |
| 1777998596 | 23.89° C | 44% | 1017.7 hPa | 0 mm | - | 506 W/m² | - |
| 1777998291 | 23.89° C | 44% | 1017.7 hPa | 0 mm | - | 468 W/m² | - |
| 1777997988 | 23.89° C | 46% | 1017.8 hPa | 0 mm | - | 412 W/m² | - |
| 1777997382 | 22.78° C | 46% | 1017.7 hPa | 0 mm | - | 488 W/m² | - |
| 1777997080 | 23.33° C | 45% | 1017.9 hPa | 0 mm | - | 495 W/m² | - |
| 1777996473 | 23.33° C | 46% | 1017.7 hPa | 0 mm | - | 500 W/m² | - |
* Rain latest hour (hover to see other rain measurements)
** Current wind speed in m/s (hover to see current wind gust speed)